Location: �chemir�
(47.5500°N, 0.1667°W)
Time: 20:46:32
(UTC+01:00)

ISS - Visible Passes

Search period start: 02 December 2024 00:00
Search period end: 12 December 2024 00:00
Orbit: 411 x 421 km, 51.6° (Epoch: 02 December)

Date Brightness Start Highest point End Pass type
(mag) Time Alt. Az. Time Alt. Az. Time Alt. Az.
02 Dec -3.6 17:43:11 10° WNW 17:46:35 80° SSW 17:49:58 10° ESE visible
02 Dec -0.8 19:20:46 10° W 19:22:53 16° SW 19:24:58 10° S visible
03 Dec -1.3 18:31:44 10° W 18:34:31 24° SW 18:37:19 10° SSE visible
04 Dec -2.0 17:42:56 10° WNW 17:46:05 37° SW 17:49:14 10° SSE visible
05 Dec -0.1 18:33:03 10° WSW 18:33:40 10° SW 18:34:18 10° SW visible
06 Dec -0.5 17:43:01 10° W 17:45:16 17° SW 17:47:30 10° S visible
